Aérodrome :
LOGIN :

S'inscrire | Disclaimer

   EN    FR    IT 

 










Légende :    VFR   VFR Marginal   IFR   IFR Intensif   IFR Très Intensif
Visi : 
Plafond : 
>= 8 km
>= 3000ft
5 à 8 km
1000 à 3000 ft
1500m à 5 km
500 à 1000 ft
800 à 1500m
200 à 500 ft
< 800m
< 200 ft
Symboles :   Orages  Brouillard  Fortes neiges  Fortes précipitations  Vent > 20 kt
SIGMETs :   Divers  Orages  Givrage  Turbulence  Onde Orograph.  Cendres Volcan.







- Altitude de l'aérodrome : 291 ft
- Code IATA : ORY
- Voir les cartes d'approche


LFPO - Paris-Orly

DERNIER METAR :
  • 170330Z 28003KT CAVOK 12/11 Q1022 NOSIG

METARs EXPIRÉS :
  • 170300Z VRB01KT CAVOK 13/12 Q1022 NOSIG
  • 170230Z 25002KT 9999 BKN048 BKN260 13/11 Q1022 NOSIG
  • 170200Z VRB02KT CAVOK 13/12 Q1022 NOSIG
  • 170130Z 00000KT CAVOK 14/12 Q1022 NOSIG
  • 170100Z 00000KT CAVOK 14/13 Q1022 NOSIG

TAF TAF LFPO
Valide du 17 à 00h jusqu'au 18 à 06h UTC


162300Z 1700/1806 VRB03KT CAVOK
BECMG 1709/1712 09005KT
BECMG 1800/1803 18005KT
ATIS : +33 1 49 75 65 80
Pas de NOTAMs connus pour ce terrain.



MET'MAP, la Météo Aéronautique d'un coup d'oeil ! - Copyright ORBIFLY Décembre 2007 - Disclaimer

ORBIFLY MET'MAP TEAM :

Programmation & Développement : Alexandra Zaïnal
Conception & Développement : Baudouin d'Aumeries
Co-Programmation & Développement : Marc-Olivier Méhu
Soutien technique & logistique : Manuel Goepfert

Contact : metmap@orbifly.com




SOURCES & CREDITS :

   NOAA